| time (UTC) | temp C | wind direction | speed KPH | gust KPH | rain 1hr cm | rain 24hr cm | rain mn cm | humidity % | barometer mb |
| 20260504191514 | 28 | 41 | 1.6 | 11.3 | 0.00 | 0.00 | 0.00 | 43 | 1014.3 |
| 20260504190018 | 28 | 342 | 1.6 | 12.9 | 0.00 | 0.00 | 0.00 | 45 | 1014.6 |
| 20260504184524 | 28 | 78 | 3.2 | 16.1 | 0.00 | 0.00 | 0.00 | 43 | 1014.9 |
| 20260504183023 | 28 | 43 | 6.4 | 14.5 | 0.00 | 0.00 | 0.00 | 43 | 1015.2 |
| 20260504181513 | 28 | 43 | 4.8 | 16.1 | 0.00 | 0.00 | 0.00 | 43 | 1015.5 |
| 20260504180015 | 28 | 153 | 3.2 | 14.5 | 0.00 | 0.00 | 0.00 | 42 | 1015.5 |
| 20260504174516 | 28 | 9 | 3.2 | 16.1 | 0.00 | 0.00 | 0.00 | 43 | 1015.7 |
| 20260504173018 | 28 | 141 | 4.8 | 14.5 | 0.00 | 0.00 | 0.00 | 44 | 1015.9 |
| 20260504171517 | 28 | 301 | 1.6 | 19.3 | 0.00 | 0.00 | 0.00 | 45 | 1016.0 |
| 20260504081529 | 18 | 9 | 1.6 | 9.7 | 0.00 | 0.05 | 0.00 | 82 | 1015.3 |
| 20260504050010 | 18 | 56 | 0.0 | 1.6 | 0.00 | 0.13 | 0.00 | 82 | 1016.3 |
| 20260504044518 | 19 | 56 | 0.0 | 0.0 | 0.00 | 0.15 | 0.00 | 81 | 1016.8 |
| 20260504043020 | 19 | 56 | 0.0 | 0.0 | 0.00 | 0.25 | 0.00 | 80 | 1017.0 |
| 20260504041523 | 19 | 56 | 0.0 | 0.0 | 0.00 | 0.28 | 0.00 | 79 | 1017.1 |
| 20260504040007 | 20 | 55 | 0.0 | 0.0 | 0.00 | 0.30 | 0.00 | 78 | 1017.1 |
| 20260504034511 | 20 | 44 | 0.0 | 3.2 | 0.00 | 0.33 | 0.30 | 78 | 1017.0 |
| 20260504033020 | 20 | 45 | 0.0 | 0.0 | 0.00 | 0.33 | 0.30 | 77 | 1017.0 |
| 20260504031521 | 20 | 38 | 0.0 | 0.0 | 0.00 | 0.33 | 0.30 | 77 | 1016.9 |
| 20260504030034 | 20 | 38 | 0.0 | 3.2 | 0.00 | 0.36 | 0.30 | 77 | 1016.9 |
| 20260504024512 | 20 | 76 | 0.0 | 3.2 | 0.00 | 0.36 | 0.30 | 77 | 1016.8 |
| 20260504023015 | 20 | 67 | 1.6 | 4.8 | 0.00 | 0.36 | 0.30 | 77 | 1016.8 |
| 20260504021516 | 21 | 65 | 3.2 | 6.4 | 0.00 | 0.36 | 0.30 | 76 | 1016.5 |
| 20260504020034 | 21 | 54 | 1.6 | 4.8 | 0.00 | 0.36 | 0.30 | 75 | 1016.5 |
| 20260504014526 | 21 | 63 | 0.0 | 3.2 | 0.00 | 0.36 | 0.30 | 74 | 1016.4 |
| 20260504013011 | 21 | 69 | 0.0 | 3.2 | 0.00 | 0.36 | 0.30 | 73 | 1016.2 |
| 20260504011514 | 22 | 60 | 0.0 | 3.2 | 0.00 | 0.36 | 0.30 | 72 | 1016.2 |
| 20260504010022 | 22 | 59 | 0.0 | 3.2 | 0.00 | 0.36 | 0.30 | 71 | 1016.0 |
| 20260504004538 | 22 | 63 | 1.6 | 4.8 | 0.00 | 0.36 | 0.30 | 70 | 1015.7 |
| 20260504003007 | 23 | 59 | 0.0 | 1.6 | 0.00 | 0.36 | 0.30 | 68 | 1015.4 |
| 20260504001529 | 23 | 78 | 0.0 | 4.8 | 0.00 | 0.36 | 0.30 | 67 | 1015.1 |
| 20260504000019 | 23 | 77 | 0.0 | 6.4 | 0.00 | 0.36 | 0.30 | 66 | 1015.1 |
| 20260503234527 | 24 | 56 | 0.0 | 3.2 | 0.00 | 0.36 | 0.30 | 64 | 1015.2 |
| 20260503233023 | 24 | 69 | 0.0 | 8.0 | 0.00 | 0.36 | 0.30 | 63 | 1015.0 |
| 20260503231513 | 25 | 40 | 1.6 | 9.7 | 0.00 | 0.36 | 0.30 | 61 | 1015.0 |
| 20260503230022 | 25 | 41 | 1.6 | 9.7 | 0.00 | 0.38 | 0.30 | 61 | 1015.0 |
| 20260503224522 | 25 | 52 | 1.6 | 12.9 | 0.00 | 0.41 | 0.30 | 60 | 1014.9 |
| 20260503223027 | 25 | 57 | 1.6 | 6.4 | 0.00 | 0.41 | 0.30 | 60 | 1014.9 |
| 20260503221531 | 26 | 40 | 3.2 | 11.3 | 0.00 | 0.46 | 0.30 | 57 | 1014.9 |
| 20260503220027 | 26 | 105 | 1.6 | 6.4 | 0.00 | 0.51 | 0.30 | 58 | 1014.8 |
| 20260503214529 | 26 | 60 | 0.0 | 6.4 | 0.00 | 0.51 | 0.30 | 58 | 1014.9 |
| 20260503213032 | 26 | 63 | 4.8 | 9.7 | 0.00 | 0.53 | 0.30 | 56 | 1014.9 |
| 20260503211526 | 26 | 10 | 3.2 | 8.0 | 0.00 | 0.53 | 0.30 | 55 | 1014.8 |
| 20260503210028 | 27 | 32 | 1.6 | 8.0 | 0.00 | 0.56 | 0.30 | 54 | 1014.9 |
| 20260503204525 | 27 | 45 | 6.4 | 16.1 | 0.00 | 0.56 | 0.30 | 53 | 1015.1 |
| 20260503203025 | 26 | 32 | 3.2 | 14.5 | 0.00 | 0.56 | 0.30 | 55 | 1015.2 |
| 20260503201525 | 26 | 46 | 3.2 | 12.9 | 0.00 | 0.56 | 0.30 | 55 | 1015.2 |
| 20260503200028 | 26 | 85 | 4.8 | 12.9 | 0.00 | 0.99 | 0.30 | 59 | 1015.5 |
| 20260503194529 | 26 | 78 | 3.2 | 16.1 | 0.00 | 1.60 | 0.30 | 57 | 1015.7 |
| 20260503193022 | 25 | 9 | 3.2 | 20.9 | 0.00 | 1.63 | 0.30 | 59 | 1016.0 |